Location: Sevilla
(37.3933°N, 5.9839°W)
Time: 05:16:47
(UTC+02:00)

Transit 2A Rocket - Pass Details

Date: 01 July 2024
Orbit: 582 x 910 km, 66.7° (Epoch: 15 July)

Event Time Altitude Azimuth Distance (km) Brightness Sun altitude
Rises 21:31:20 0° 252° (WSW) 3,146 8.9 2.2°
Reaches altitude 10° 21:34:21 10° 271° (W) 2,293 8.8 1.7°
Maximum altitude 21:37:57 18° 315° (NW) 1,858 8.5 1.0°
Drops below altitude 10° 21:41:47 10° 358° (N) 2,449 8.1 0.4°
Sets 21:45:09 0° 16° (NNE) 3,443 8.6 -0.2°
